timestamp,wind_dir_avg,wind_spd_avg,wind_spd_max_dir,wind_spd_gust,battery_voltage,lat,long
2024-05-06 00:04:00+00:00,315.0,0.01,48.0,0.0,12.65,47.59359,-54.27349
2024-05-06 00:14:00+00:00,315.0,0.01,48.0,0.0,12.25,47.59359,-54.27349
2024-05-06 00:24:00+00:00,315.0,0.01,48.0,0.0,12.25,47.59359,-54.27349
2024-05-06 00:34:00+00:00,315.0,0.01,48.0,0.0,12.25,47.59359,-54.27349
2024-05-06 00:44:00+00:00,315.0,0.01,48.0,0.0,12.25,47.59359,-54.27349
2024-05-06 00:54:00+00:00,315.0,0.01,48.0,0.0,12.25,47.59359,-54.27349
2024-05-06 01:04:00+00:00,315.0,0.01,48.0,0.0,12.25,47.59359,-54.27349
2024-05-06 01:14:00+00:00,315.0,0.01,48.0,0.0,12.25,47.59359,-54.27349
2024-05-06 01:24:00+00:00,315.0,0.01,48.0,0.0,12.25,47.59359,-54.27349
2024-05-06 01:34:00+00:00,315.0,0.01,48.0,0.0,12.25,47.59359,-54.27349
2024-05-06 01:44:00+00:00,315.0,0.01,48.0,0.0,12.25,47.59359,-54.27349
2024-05-06 01:54:00+00:00,315.0,0.01,48.0,0.0,12.25,47.59359,-54.27349
2024-05-06 02:04:00+00:00,315.0,0.01,48.0,0.0,12.25,47.59359,-54.27349
2024-05-06 02:14:00+00:00,315.0,0.01,48.0,0.0,12.17,47.59359,-54.27349
2024-05-06 02:24:00+00:00,315.0,0.01,48.0,0.0,12.17,47.59359,-54.27349
2024-05-06 02:34:00+00:00,315.0,0.01,48.0,0.0,12.17,47.59359,-54.27349
2024-05-06 02:44:00+00:00,315.0,0.01,48.0,0.0,12.17,47.59359,-54.27349
2024-05-06 02:54:00+00:00,315.0,0.01,48.0,0.0,12.17,47.59359,-54.27349
2024-05-06 03:04:00+00:00,315.0,0.01,48.0,0.0,12.17,47.59359,-54.27349
2024-05-06 03:14:01+00:00,315.0,0.01,48.0,0.0,12.17,47.59359,-54.27349
2024-05-06 03:24:01+00:00,315.0,0.01,48.0,0.0,12.17,47.59359,-54.27349
2024-05-06 03:34:01+00:00,315.0,0.01,48.0,0.0,12.17,47.59359,-54.27349
2024-05-06 03:44:01+00:00,315.0,0.01,48.0,0.0,12.17,47.59359,-54.27349
2024-05-06 03:54:01+00:00,315.0,0.01,48.0,0.0,12.17,47.59359,-54.27349
2024-05-06 04:04:01+00:00,315.0,0.01,48.0,0.0,12.17,47.59359,-54.27349
2024-05-06 04:14:00+00:00,315.0,0.01,48.0,0.0,12.17,47.59359,-54.27349
2024-05-06 04:24:00+00:00,315.0,0.01,48.0,0.0,12.17,47.59359,-54.27349
2024-05-06 04:34:00+00:00,315.0,0.01,48.0,0.0,12.17,47.59359,-54.27349
2024-05-06 04:44:00+00:00,315.0,0.01,48.0,0.0,12.17,47.59359,-54.27349
2024-05-06 04:54:00+00:00,315.0,0.01,48.0,0.0,12.17,47.59359,-54.27349
2024-05-06 05:04:00+00:00,315.0,0.01,48.0,0.0,12.17,47.59359,-54.27349
2024-05-06 05:14:00+00:00,315.0,0.01,48.0,0.0,12.09,47.59359,-54.27349
2024-05-06 05:24:00+00:00,315.0,0.01,48.0,0.0,12.09,47.59359,-54.27349
2024-05-06 05:34:00+00:00,315.0,0.01,48.0,0.0,12.09,47.59359,-54.27349
2024-05-06 05:44:00+00:00,315.0,0.01,48.0,0.0,12.09,47.59359,-54.27349
2024-05-06 05:54:00+00:00,315.0,0.01,48.0,0.0,12.09,47.59359,-54.27349
2024-05-06 06:04:00+00:00,315.0,0.01,48.0,0.0,12.09,47.59359,-54.27349
2024-05-06 06:14:00+00:00,315.0,0.01,48.0,0.0,12.09,47.59359,-54.27349
2024-05-06 06:24:00+00:00,315.0,0.01,48.0,0.0,12.09,47.59359,-54.27349
2024-05-06 06:34:00+00:00,315.0,0.01,48.0,0.0,12.09,47.59359,-54.27349
2024-05-06 06:44:00+00:00,315.0,0.01,48.0,0.0,12.09,47.59359,-54.27349
2024-05-06 06:54:00+00:00,315.0,0.01,48.0,0.0,12.09,47.59359,-54.27349
2024-05-06 07:04:00+00:00,315.0,0.01,48.0,0.0,12.09,47.59359,-54.27349
2024-05-06 07:14:00+00:00,315.0,0.01,48.0,0.0,12.01,47.59359,-54.27349
2024-05-06 07:24:00+00:00,315.0,0.01,48.0,0.0,12.01,47.59359,-54.27349
2024-05-06 07:34:00+00:00,315.0,0.01,48.0,0.0,12.01,47.59359,-54.27349
2024-05-06 07:44:00+00:00,315.0,0.01,48.0,0.0,12.01,47.59359,-54.27349
2024-05-06 07:54:00+00:00,315.0,0.01,48.0,0.0,12.01,47.59359,-54.27349
2024-05-06 08:04:00+00:00,315.0,0.01,48.0,0.0,12.01,47.59359,-54.27349
2024-05-06 08:14:00+00:00,315.0,0.01,48.0,0.0,12.01,47.59359,-54.27349
2024-05-06 08:24:00+00:00,315.0,0.01,48.0,0.0,12.01,47.59359,-54.27349
2024-05-06 08:34:00+00:00,315.0,0.01,48.0,0.0,12.01,47.59359,-54.27349
2024-05-06 08:44:00+00:00,315.0,0.01,48.0,0.0,12.01,47.59359,-54.27349
2024-05-06 08:54:00+00:00,315.0,0.01,48.0,0.0,12.01,47.59359,-54.27349
2024-05-06 09:04:00+00:00,315.0,0.01,48.0,0.0,12.01,47.59359,-54.27349
2024-05-06 09:14:00+00:00,315.0,0.01,48.0,0.0,12.17,47.59359,-54.27349
2024-05-06 09:24:00+00:00,315.0,0.01,48.0,0.0,12.17,47.59359,-54.27349
2024-05-06 09:34:00+00:00,315.0,0.01,48.0,0.0,12.17,47.59359,-54.27349
2024-05-06 09:44:00+00:00,315.0,0.01,48.0,0.0,12.17,47.59359,-54.27349
2024-05-06 09:54:00+00:00,315.0,0.01,48.0,0.0,12.17,47.59359,-54.27349
2024-05-06 10:04:00+00:00,315.0,0.01,48.0,0.0,12.17,47.59359,-54.27349
2024-05-06 10:14:01+00:00,315.0,0.01,48.0,0.0,13.29,47.59359,-54.27349
2024-05-06 10:24:01+00:00,315.0,0.01,48.0,0.0,13.29,47.59359,-54.27349
2024-05-06 10:34:01+00:00,315.0,0.01,48.0,0.0,13.29,47.59359,-54.27349
2024-05-06 10:44:01+00:00,315.0,0.01,48.0,0.0,13.29,47.59359,-54.27349
2024-05-06 10:54:01+00:00,315.0,0.01,48.0,0.0,13.29,47.59359,-54.27349
2024-05-06 11:04:01+00:00,315.0,0.01,48.0,0.0,13.29,47.59359,-54.27349
2024-05-06 11:14:01+00:00,315.0,0.01,48.0,0.0,13.29,47.59359,-54.27349
2024-05-06 11:24:01+00:00,315.0,0.01,48.0,0.0,13.29,47.59359,-54.27349
2024-05-06 11:34:01+00:00,315.0,0.01,48.0,0.0,13.29,47.59359,-54.27349
2024-05-06 11:44:01+00:00,315.0,0.01,48.0,0.0,13.29,47.59359,-54.27349
2024-05-06 11:54:01+00:00,315.0,0.01,48.0,0.0,13.29,47.59359,-54.27349
2024-05-06 12:04:01+00:00,315.0,0.01,48.0,0.0,13.29,47.59359,-54.27349
2024-05-06 12:14:00+00:00,315.0,0.01,48.0,0.0,14.16,47.59359,-54.27349
2024-05-06 12:24:00+00:00,315.0,0.01,48.0,0.0,14.16,47.59359,-54.27349
2024-05-06 12:34:00+00:00,315.0,0.01,48.0,0.0,14.16,47.59359,-54.27349
2024-05-06 12:44:00+00:00,315.0,0.01,48.0,0.0,14.16,47.59359,-54.27349
2024-05-06 12:54:00+00:00,315.0,0.01,48.0,0.0,14.16,47.59359,-54.27349
2024-05-06 13:04:00+00:00,315.0,0.01,48.0,0.0,14.16,47.59359,-54.27349
2024-05-06 13:14:00+00:00,315.0,0.01,48.0,0.0,14.0,47.59359,-54.27349
2024-05-06 13:24:00+00:00,315.0,0.01,48.0,0.0,14.0,47.59359,-54.27349
2024-05-06 13:34:00+00:00,315.0,0.01,48.0,0.0,14.0,47.59359,-54.27349
2024-05-06 13:44:00+00:00,315.0,0.01,48.0,0.0,14.0,47.59359,-54.27349
2024-05-06 13:54:00+00:00,315.0,0.01,48.0,0.0,14.0,47.59359,-54.27349
2024-05-06 14:04:00+00:00,315.0,0.01,48.0,0.0,14.0,47.59359,-54.27349
2024-05-06 14:14:00+00:00,315.0,0.01,48.0,0.0,13.68,47.59359,-54.27349
2024-05-06 14:24:00+00:00,315.0,0.01,48.0,0.0,13.68,47.59359,-54.27349
2024-05-06 14:34:00+00:00,315.0,0.01,48.0,0.0,13.68,47.59359,-54.27349
2024-05-06 14:44:00+00:00,315.0,0.01,48.0,0.0,13.68,47.59359,-54.27349
2024-05-06 14:54:00+00:00,315.0,0.01,48.0,0.0,13.68,47.59359,-54.27349
2024-05-06 15:04:00+00:00,315.0,0.01,48.0,0.0,13.68,47.59359,-54.27349
2024-05-06 15:14:00+00:00,315.0,0.01,48.0,0.0,13.68,47.59359,-54.27349
2024-05-06 15:24:00+00:00,315.0,0.01,48.0,0.0,13.68,47.59359,-54.27349
2024-05-06 15:34:00+00:00,315.0,0.01,48.0,0.0,13.68,47.59359,-54.27349
2024-05-06 15:44:00+00:00,315.0,0.01,48.0,0.0,13.68,47.59359,-54.27349
2024-05-06 15:54:00+00:00,315.0,0.01,48.0,0.0,13.68,47.59359,-54.27349
2024-05-06 16:04:00+00:00,315.0,0.01,48.0,0.0,13.68,47.59359,-54.27349
2024-05-06 16:14:00+00:00,315.0,0.01,48.0,0.0,13.84,47.59359,-54.27349
2024-05-06 16:24:00+00:00,315.0,0.01,48.0,0.0,13.84,47.59359,-54.27349
2024-05-06 16:34:00+00:00,315.0,0.01,48.0,0.0,13.84,47.59359,-54.27349
2024-05-06 16:44:00+00:00,315.0,0.01,48.0,0.0,13.84,47.59359,-54.27349
2024-05-06 16:54:00+00:00,315.0,0.01,48.0,0.0,13.84,47.59359,-54.27349
2024-05-06 17:04:00+00:00,315.0,0.01,48.0,0.0,13.84,47.59359,-54.27349
2024-05-06 17:14:00+00:00,315.0,0.01,48.0,0.0,14.16,47.59359,-54.27349
2024-05-06 17:24:00+00:00,315.0,0.01,48.0,0.0,14.16,47.59359,-54.27349
2024-05-06 17:34:00+00:00,315.0,0.01,48.0,0.0,14.16,47.59359,-54.27349
2024-05-06 17:44:00+00:00,315.0,0.01,48.0,0.0,14.16,47.59359,-54.27349
2024-05-06 17:54:00+00:00,315.0,0.01,48.0,0.0,14.16,47.59359,-54.27349
2024-05-06 18:04:00+00:00,315.0,0.01,48.0,0.0,14.16,47.59359,-54.27349
2024-05-06 18:14:00+00:00,315.0,0.01,48.0,0.0,13.68,47.59359,-54.27349
2024-05-06 18:24:00+00:00,315.0,0.01,48.0,0.0,13.68,47.59359,-54.27349
2024-05-06 18:34:00+00:00,315.0,0.01,48.0,0.0,13.68,47.59359,-54.27349
2024-05-06 18:44:00+00:00,315.0,0.01,48.0,0.0,13.68,47.59359,-54.27349
2024-05-06 18:54:00+00:00,315.0,0.01,48.0,0.0,13.68,47.59359,-54.27349
2024-05-06 19:04:00+00:00,315.0,0.01,48.0,0.0,13.68,47.59359,-54.27349
2024-05-06 19:14:01+00:00,315.0,0.01,48.0,0.0,13.44,47.59359,-54.27349
2024-05-06 19:24:01+00:00,315.0,0.01,48.0,0.0,13.44,47.59359,-54.27349
2024-05-06 19:34:01+00:00,315.0,0.01,48.0,0.0,13.44,47.59359,-54.27349
2024-05-06 19:44:01+00:00,315.0,0.01,48.0,0.0,13.44,47.59359,-54.27349
2024-05-06 19:54:01+00:00,315.0,0.01,48.0,0.0,13.44,47.59359,-54.27349
2024-05-06 20:04:01+00:00,315.0,0.01,48.0,0.0,13.44,47.59359,-54.27349
2024-05-06 20:14:01+00:00,315.0,0.01,48.0,0.0,13.53,47.59359,-54.27349
2024-05-06 20:24:01+00:00,315.0,0.01,48.0,0.0,13.53,47.59359,-54.27349
2024-05-06 20:34:01+00:00,315.0,0.01,48.0,0.0,13.53,47.59359,-54.27349
2024-05-06 20:44:01+00:00,315.0,0.01,48.0,0.0,13.53,47.59359,-54.27349
2024-05-06 20:54:01+00:00,315.0,0.01,48.0,0.0,13.53,47.59359,-54.27349
2024-05-06 21:04:01+00:00,315.0,0.01,48.0,0.0,13.53,47.59359,-54.27349
2024-05-06 21:14:01+00:00,315.0,0.01,48.0,0.0,13.37,47.59359,-54.27349
2024-05-06 21:24:01+00:00,315.0,0.01,48.0,0.0,13.37,47.59359,-54.27349
2024-05-06 21:34:01+00:00,315.0,0.01,48.0,0.0,13.37,47.59359,-54.27349
2024-05-06 21:44:01+00:00,315.0,0.01,48.0,0.0,13.37,47.59359,-54.27349
2024-05-06 21:54:01+00:00,315.0,0.01,48.0,0.0,13.37,47.59359,-54.27349
2024-05-06 22:04:01+00:00,315.0,0.01,48.0,0.0,13.37,47.59359,-54.27349
2024-05-06 22:14:00+00:00,315.0,0.01,48.0,0.0,13.05,47.59359,-54.27349
2024-05-06 22:24:00+00:00,315.0,0.01,48.0,0.0,13.05,47.59359,-54.27349
2024-05-06 22:34:00+00:00,315.0,0.01,48.0,0.0,13.05,47.59359,-54.27349
2024-05-06 22:44:00+00:00,315.0,0.01,48.0,0.0,13.05,47.59359,-54.27349
2024-05-06 22:54:00+00:00,315.0,0.01,48.0,0.0,13.05,47.59359,-54.27349
2024-05-06 23:04:00+00:00,315.0,0.01,48.0,0.0,13.05,47.59359,-54.27349
2024-05-06 23:14:00+00:00,315.0,0.01,48.0,0.0,12.57,47.59359,-54.27349
2024-05-06 23:24:00+00:00,315.0,0.01,48.0,0.0,12.57,47.59359,-54.27349
2024-05-06 23:34:00+00:00,315.0,0.01,48.0,0.0,12.57,47.59359,-54.27349
2024-05-06 23:44:00+00:00,315.0,0.01,48.0,0.0,12.57,47.59359,-54.27349
2024-05-06 23:54:00+00:00,315.0,0.01,48.0,0.0,12.57,47.59359,-54.27349
